Weather History for KFKS - July, 2014

Change the Weather History Date:

Thursday, July 3, 2014

  Actual Average (KTVC) Record (KTVC)
Temperature  
Mean Temperature 56 °F 68 °F  
Max Temperature 69 °F 80 °F 98 °F (1966)
Min Temperature 42 °F 57 °F 42 °F (1986)
Degree Days  
Heating Degree Days 10 1  
Month to date heating degree days 4  
Since 1 June heating degree days 116  
Since 1 July heating degree days 4  
Cooling Degree Days 0 5  
Month to date cooling degree days 15  
Year to date cooling degree days 116  
Since 1 June cooling degree days 96  
Growing Degree Days 6 (Base 50)    
Moisture  
Dew Point 46 °F    
Average Humidity 74    
Maximum Humidity 96    
Minimum Humidity 38    
Precipitation  
Precipitation 0.00 in 0.09 in 1.37 in (1951)
Month to date precipitation 0.28  
Year to date precipitation 14.99  
Sea Level Pressure  
Sea Level Pressure 30.09 in    
Wind  
Wind Speed 2 mph (WNW)    
Max Wind Speed 12 mph    
Max Gust Speed -    
Visibility 10 miles    
Events      
T = Trace of Precipitation, MM = Missing Value Source: NWS Daily Summary

Daily Weather History Graph

Daily Weather History Graph

Search for Another Location

Airport or City:

Trip Planner

Search our weather history database for the weather conditions in past years. The results will help you decide how hot, cold, wet, or windy it might be!

Date:

Astronomy

Jul. 03, 2014 Rise Set
Actual Time 6:04 AM EDT 9:33 PM EDT
Civil Twilight 5:27 AM EDT 10:09 PM EDT
Nautical Twilight 4:39 AM EDT 10:57 PM EDT
Astronomical Twilight 3:37 AM EDT 11:59 PM EDT
Moon 12:18 PM EDT (7/3) 12:11 AM EDT (7/3)
Length of Visible Light 16h 41m
Length of Day
15h 28m
Waxing Crescent, 33% of the Moon is Illuminated
Jul 3
Waxing Crescent
Jul 5
First Quarter
Jul 12
Full
Jul 18
Last Quarter
Jul 26
New

Hourly Weather History & Observations

Time (EDT) Temp. Dew Point Humidity Pressure Visibility Wind Dir Wind Speed Gust Speed Precip Events Conditions
12:14 AM 48.6 °F 46.9 °F 94% 30.01 in 10.0 mi Calm Calm - N/A   Clear
12:34 AM 48.2 °F 46.6 °F 94% 30.02 in 10.0 mi Calm Calm - N/A   Clear
12:54 AM 46.9 °F 45.5 °F 95% 30.02 in 10.0 mi Calm Calm - N/A   Clear
1:15 AM 46.4 °F 45.0 °F 95% 30.02 in 10.0 mi Calm Calm - N/A   Clear
1:35 AM 46.4 °F 45.1 °F 95% 30.02 in 10.0 mi Calm Calm - N/A   Clear
1:55 AM 45.0 °F 43.7 °F 95% 30.03 in 10.0 mi Calm Calm - N/A   Clear
2:15 AM 44.8 °F 43.5 °F 95% 30.02 in 10.0 mi Calm Calm - N/A   Clear
2:35 AM 44.6 °F 43.2 °F 95% 30.02 in 10.0 mi Calm Calm - N/A   Clear
2:55 AM 43.3 °F 42.1 °F 95% 30.02 in 10.0 mi Calm Calm - N/A   Clear
3:15 AM 43.2 °F 42.1 °F 96% 30.02 in 10.0 mi Calm Calm - N/A   Clear
3:36 AM 43.7 °F 42.4 °F 95% 30.02 in 10.0 mi Calm Calm - N/A   Clear
3:56 AM 43.2 °F 41.9 °F 95% 30.02 in 10.0 mi Calm Calm - N/A   Clear
4:16 AM 42.4 °F 41.0 °F 95% 30.02 in - Calm Calm - N/A   Unknown
4:36 AM 42.8 °F 41.4 °F 95% 30.02 in 10.0 mi Calm Calm - N/A   Clear
4:56 AM 43.3 °F 41.5 °F 93% 30.01 in 10.0 mi Calm Calm - N/A   Clear
5:16 AM 43.5 °F 41.9 °F 94% 30.02 in 10.0 mi Calm Calm - N/A   Clear
5:36 AM 43.0 °F 41.4 °F 94% 30.02 in 10.0 mi Calm Calm - N/A   Clear
5:56 AM 43.9 °F 41.9 °F 93% 30.03 in 10.0 mi Calm Calm - N/A   Clear
6:16 AM 44.1 °F 42.3 °F 93% 30.04 in 10.0 mi Calm Calm - N/A   Clear
6:31 AM 43.3 °F 41.9 °F 95% 30.04 in 10.0 mi Calm Calm - N/A   Clear
6:51 AM 43.9 °F 42.4 °F 95% 30.05 in 10.0 mi Calm Calm - N/A   Clear
7:11 AM 45.0 °F 43.5 °F 95% 30.05 in 10.0 mi Calm Calm - N/A   Clear
7:32 AM 46.4 °F 44.8 °F 94% 30.06 in 10.0 mi Calm Calm - N/A   Clear
7:52 AM 47.1 °F 45.7 °F 95% 30.06 in 10.0 mi Calm Calm - N/A   Clear
8:12 AM 48.9 °F 47.3 °F 94% 30.07 in 10.0 mi Calm Calm - N/A   Clear
8:32 AM 52.9 °F 50.9 °F 93% 30.07 in 10.0 mi Calm Calm - N/A   Clear
8:52 AM 57.2 °F 52.5 °F 84% 30.07 in 10.0 mi WNW 5.8 mph - N/A   Clear
9:12 AM 58.1 °F 51.3 °F 78% 30.07 in 10.0 mi West 4.6 mph - N/A   Clear
9:52 AM 60.6 °F 53.1 °F 76% 30.07 in 10.0 mi West 4.6 mph - N/A   Clear
10:13 AM 61.3 °F 51.8 °F 71% 30.07 in 10.0 mi West 5.8 mph - N/A   Clear
10:33 AM 62.8 °F 51.8 °F 67% 30.07 in 10.0 mi West 8.1 mph - N/A   Clear
10:53 AM 62.1 °F 47.8 °F 60% 30.08 in 10.0 mi WNW 8.1 mph - N/A   Clear
11:13 AM 64.6 °F 48.0 °F 55% 30.08 in 10.0 mi WNW 5.8 mph - N/A   Clear
11:33 AM 64.2 °F 48.0 °F 56% 30.08 in 10.0 mi WNW 6.9 mph - N/A   Clear
11:53 AM 65.7 °F 48.9 °F 55% 30.08 in 10.0 mi WNW 5.8 mph - N/A   Clear
12:13 PM 67.1 °F 47.3 °F 49% 30.08 in 10.0 mi WNW 6.9 mph - N/A   Clear
12:33 PM 67.6 °F 48.9 °F 51% 30.08 in 10.0 mi NW 8.1 mph - N/A   Clear
12:53 PM 66.4 °F 46.6 °F 49% 30.09 in 10.0 mi NW 6.9 mph - N/A   Clear
1:13 PM 67.1 °F 46.2 °F 47% 30.09 in 10.0 mi NW 5.8 mph - N/A   Clear
1:34 PM 67.3 °F 42.8 °F 41% 30.09 in 10.0 mi NNW 4.6 mph - N/A   Clear
1:54 PM 68.7 °F 43.0 °F 39% 30.10 in 10.0 mi WNW 5.8 mph - N/A   Clear
2:14 PM 63.7 °F 49.3 °F 59% 30.10 in 10.0 mi West 8.1 mph - N/A   Clear
2:34 PM 67.8 °F 41.2 °F 38% 30.11 in 10.0 mi NW 6.9 mph - N/A   Clear
2:54 PM 67.1 °F 48.9 °F 52% 30.11 in 10.0 mi West 5.8 mph - N/A   Clear
3:14 PM 67.6 °F 46.9 °F 47% 30.11 in 10.0 mi West 6.9 mph - N/A   Clear
3:34 PM 69.1 °F 44.1 °F 40% 30.10 in 10.0 mi Calm Calm - N/A   Clear
3:54 PM 68.7 °F 44.1 °F 41% 30.11 in 10.0 mi West 11.5 mph - N/A   Clear
4:15 PM 67.8 °F 45.9 °F 45% 30.12 in 10.0 mi West 8.1 mph - N/A   Clear
4:35 PM 68.2 °F 43.3 °F 41% 30.12 in 10.0 mi West 8.1 mph - N/A   Clear
4:55 PM 68.0 °F 44.8 °F 43% 30.12 in 10.0 mi WNW 3.5 mph - N/A   Clear
5:15 PM 64.8 °F 47.8 °F 54% 30.12 in 10.0 mi West 5.8 mph - N/A   Scattered Clouds
5:35 PM 64.4 °F 46.4 °F 52% 30.12 in 10.0 mi WNW 3.5 mph - N/A   Mostly Cloudy
5:55 PM 63.5 °F 47.1 °F 55% 30.13 in 10.0 mi West 4.6 mph - N/A   Overcast
6:15 PM 64.6 °F 49.3 °F 58% 30.13 in 10.0 mi West 3.5 mph - N/A   Mostly Cloudy
6:35 PM 64.6 °F 48.9 °F 57% 30.13 in 10.0 mi West 5.8 mph - N/A   Scattered Clouds
6:56 PM 64.6 °F 49.8 °F 59% 30.13 in 10.0 mi West 4.6 mph - N/A   Scattered Clouds
7:16 PM 62.8 °F 49.1 °F 61% 30.13 in 10.0 mi Calm Calm - N/A   Clear
7:26 PM 62.8 °F 48.6 °F 60% 30.13 in 10.0 mi WNW 5.8 mph - N/A   Scattered Clouds
8:00 PM 62.6 °F 50.0 °F 63% 30.14 in 10.0 mi Calm Calm - N/A   Clear
8:08 PM 61.7 °F 49.6 °F 65% 30.14 in 10.0 mi Calm Calm - N/A   Clear
8:15 PM 62.1 °F 48.7 °F 62% 30.14 in 10.0 mi West 3.5 mph - N/A   Clear
8:35 PM 61.5 °F 48.6 °F 62% 30.14 in 10.0 mi Calm Calm - N/A   Clear
8:55 PM 60.6 °F 49.1 °F 66% 30.15 in 10.0 mi Calm Calm - N/A   Clear
9:15 PM 55.6 °F 49.1 °F 79% 30.15 in 10.0 mi Calm Calm - N/A   Clear
9:35 PM 53.8 °F 49.3 °F 85% 30.15 in 10.0 mi Calm Calm - N/A   Clear
9:55 PM 52.3 °F 48.4 °F 86% 30.16 in 10.0 mi Calm Calm - N/A   Clear
10:15 PM 51.3 °F 48.2 °F 89% 30.17 in 10.0 mi Calm Calm - N/A   Clear
10:35 PM 50.9 °F 47.5 °F 88% 30.17 in 10.0 mi Calm Calm - N/A   Clear
10:55 PM 50.0 °F 47.3 °F 90% 30.18 in 10.0 mi Calm Calm - N/A   Clear
11:15 PM 49.5 °F 47.1 °F 92% 30.18 in 10.0 mi Calm Calm - N/A   Clear
11:35 PM 48.9 °F 46.2 °F 90% 30.18 in 10.0 mi Calm Calm - N/A   Clear
11:55 PM 47.7 °F 45.0 °F 90% 30.19 in 10.0 mi Calm Calm - N/A   Clear